Storm Lake, IA

5:07 PM CDT on August 23, 2017 (GMT -0500)
Storm Lake Municipal

Weather History for KSLB - September, 2013

Change the Weather History Date:

Monday, September 23, 2013

  Actual Average Record
Temperature  
Mean Temperature 64 °F -  
Max Temperature 77 °F 70 °F 89 °F (2007)
Min Temperature 50 °F 48 °F 33 °F (2012)
Degree Days  
Heating Degree Days 2    
Growing Degree Days 14 (Base 50)    
Moisture  
Dew Point 49 °F    
Average Humidity 66    
Maximum Humidity 94    
Minimum Humidity 34    
Precipitation  
Precipitation 0.00 in - - ()
Sea Level Pressure  
Sea Level Pressure 29.83 in    
Wind  
Wind Speed 11 mph (SSE)    
Max Wind Speed 22 mph    
Max Gust Speed 32 mph    
Visibility 10 miles    
Events      
Averages and records for this station are not official NWS values.
T = Trace of Precipitation, MM = Missing Value Source: NWS Daily Summary

Daily Weather History Graph

Daily Weather History Graph

Search for Another Location

Airport or City:

Trip Planner

Search our weather history database for the weather conditions in past years. The results will help you decide how hot, cold, wet, or windy it might be!

Date:

Astronomy

Sep. 23, 2013 Rise Set
Actual Time 7:09 AM CDT 7:15 PM CDT
Civil Twilight 6:41 AM CDT 7:44 PM CDT
Nautical Twilight 6:08 AM CDT 8:16 PM CDT
Astronomical Twilight 5:34 AM CDT 8:50 PM CDT
Moon 9:42 PM CDT 11:35 AM CDT
Length of Visible Light 13h 02m
Length of Day
12h 06m
Waning Gibbous, 81% of the Moon is Illuminated
Sep 23
Waning Gibbous
Sep 26
Last Quarter
Oct 4
New
Oct 11
First Quarter
Oct 18
Full

Hourly Weather History & Observations

Time (CDT) Temp. Dew Point Humidity Pressure Visibility Wind Dir Wind Speed Gust Speed Precip Events Conditions
12:15 AM 59.0 °F 51.8 °F 77% 29.86 in 10.0 mi SSE 10.4 mph 17.3 mph N/A   Clear
12:35 AM 59.0 °F 51.8 °F 77% 29.86 in 10.0 mi SSE 10.4 mph - N/A   Clear
12:55 AM 57.2 °F 51.8 °F 82% 29.86 in 10.0 mi SE 9.2 mph - N/A   Clear
1:15 AM 55.4 °F 51.8 °F 88% 29.86 in 10.0 mi SSE 8.1 mph - N/A   Clear
1:35 AM 55.4 °F 51.8 °F 88% 29.87 in 10.0 mi SSE 8.1 mph - N/A   Clear
1:55 AM 55.4 °F 51.8 °F 88% 29.87 in 10.0 mi SSE 9.2 mph - N/A   Clear
2:15 AM 53.6 °F 50.0 °F 88% 29.86 in 10.0 mi SSE 9.2 mph - N/A   Clear
2:35 AM 53.6 °F 50.0 °F 88% 29.86 in 10.0 mi SSE 9.2 mph - N/A   Clear
2:55 AM 53.6 °F 50.0 °F 88% 29.86 in 10.0 mi SSE 6.9 mph - N/A   Clear
3:15 AM 53.6 °F 50.0 °F 88% 29.85 in 10.0 mi SSE 6.9 mph - N/A   Clear
3:35 AM 53.6 °F 50.0 °F 88% 29.85 in 10.0 mi SE 8.1 mph - N/A   Clear
3:55 AM 53.6 °F 50.0 °F 88% 29.85 in 10.0 mi SE 8.1 mph - N/A   Clear
4:15 AM 51.8 °F 50.0 °F 94% 29.84 in 10.0 mi SE 9.2 mph - N/A   Clear
4:35 AM 51.8 °F 48.2 °F 88% 29.84 in 10.0 mi SE 8.1 mph - N/A   Clear
4:55 AM 51.8 °F 48.2 °F 88% 29.85 in 10.0 mi SE 8.1 mph - N/A   Clear
5:15 AM 50.0 °F 48.2 °F 94% 29.84 in 10.0 mi SE 8.1 mph - N/A   Clear
5:35 AM 50.0 °F 48.2 °F 94% 29.84 in 10.0 mi SSE 10.4 mph - N/A   Clear
5:55 AM 50.0 °F 48.2 °F 94% 29.84 in 10.0 mi SE 10.4 mph - N/A   Clear
6:15 AM 50.0 °F 48.2 °F 94% 29.84 in 10.0 mi SE 9.2 mph 15.0 mph N/A   Clear
6:35 AM 50.0 °F 48.2 °F 94% 29.84 in 10.0 mi SE 10.4 mph - N/A   Clear
6:55 AM 50.0 °F 48.2 °F 94% 29.85 in 10.0 mi SSE 9.2 mph - N/A   Clear
7:15 AM 50.0 °F 48.2 °F 94% 29.86 in 10.0 mi SSE 9.2 mph 15.0 mph N/A   Clear
7:35 AM 50.0 °F 48.2 °F 94% 29.86 in 10.0 mi SSE 9.2 mph - N/A   Clear
7:55 AM 50.0 °F 48.2 °F 94% 29.87 in 10.0 mi SSE 8.1 mph - N/A   Clear
8:15 AM 51.8 °F 48.2 °F 88% 29.87 in 10.0 mi SSE 6.9 mph 12.7 mph N/A   Clear
8:35 AM 53.6 °F 50.0 °F 88% 29.87 in 10.0 mi SSE 6.9 mph 13.8 mph N/A   Clear
8:55 AM 55.4 °F 50.0 °F 82% 29.87 in 10.0 mi SSE 11.5 mph - N/A   Clear
9:15 AM 57.2 °F 50.0 °F 77% 29.87 in 10.0 mi SSE 15.0 mph - N/A   Clear
9:35 AM 57.2 °F 50.0 °F 77% 29.87 in 10.0 mi SSE 15.0 mph 21.9 mph N/A   Clear
9:55 AM 60.8 °F 50.0 °F 68% 29.87 in 10.0 mi SSE 15.0 mph 24.2 mph N/A   Clear
10:15 AM 60.8 °F 50.0 °F 68% 29.87 in 10.0 mi SSE 16.1 mph 21.9 mph N/A   Clear
10:35 AM 64.4 °F 51.8 °F 64% 29.86 in 10.0 mi South 15.0 mph 20.7 mph N/A   Clear
10:55 AM 66.2 °F 51.8 °F 60% 29.86 in 10.0 mi SSE 17.3 mph 25.3 mph N/A   Clear
11:15 AM 68.0 °F 51.8 °F 56% 29.86 in 10.0 mi SSE 13.8 mph 23.0 mph N/A   Clear
11:35 AM 69.8 °F 51.8 °F 53% 29.85 in 10.0 mi SSE 18.4 mph - N/A   Clear
11:55 AM 71.6 °F 50.0 °F 46% 29.84 in 10.0 mi SSE 21.9 mph 31.1 mph N/A   Clear
12:15 PM 71.6 °F 50.0 °F 46% 29.84 in 10.0 mi South 19.6 mph 29.9 mph N/A   Clear
12:35 PM 73.4 °F 50.0 °F 44% 29.84 in 10.0 mi SSE 16.1 mph 27.6 mph N/A   Clear
12:55 PM 73.4 °F 48.2 °F 41% 29.83 in 10.0 mi SSE 18.4 mph 28.8 mph N/A   Clear
1:15 PM 75.2 °F 48.2 °F 38% 29.83 in 10.0 mi South 15.0 mph 25.3 mph N/A   Clear
1:35 PM 75.2 °F 50.0 °F 41% 29.82 in 10.0 mi SSE 16.1 mph 25.3 mph N/A   Clear
1:55 PM 75.2 °F 48.2 °F 38% 29.81 in 10.0 mi SSE 13.8 mph 26.5 mph N/A   Clear
2:15 PM 75.2 °F 48.2 °F 38% 29.80 in 10.0 mi SE 20.7 mph 28.8 mph N/A   Clear
2:35 PM 77.0 °F 46.4 °F 34% 29.79 in 10.0 mi SSE 20.7 mph 29.9 mph N/A   Clear
2:55 PM 77.0 °F 46.4 °F 34% 29.78 in 10.0 mi SSE 20.7 mph 29.9 mph N/A   Clear
3:15 PM 77.0 °F 48.2 °F 36% 29.78 in 10.0 mi SE 18.4 mph 31.1 mph N/A   Clear
3:35 PM 77.0 °F 48.2 °F 36% 29.78 in 10.0 mi SSE 18.4 mph 26.5 mph N/A   Clear
3:55 PM 77.0 °F 48.2 °F 36% 29.77 in 10.0 mi SE 16.1 mph 28.8 mph N/A   Clear
4:15 PM 77.0 °F 48.2 °F 36% 29.78 in 10.0 mi SSE 19.6 mph 29.9 mph N/A   Clear
4:35 PM 77.0 °F 48.2 °F 36% 29.78 in 10.0 mi SSE 21.9 mph 27.6 mph N/A   Clear
4:55 PM 75.2 °F 48.2 °F 38% 29.78 in 10.0 mi SE 17.3 mph 32.2 mph N/A   Clear
5:15 PM 75.2 °F 48.2 °F 38% 29.78 in 10.0 mi SSE 20.7 mph 29.9 mph N/A   Clear
5:35 PM 73.4 °F 48.2 °F 41% 29.78 in 10.0 mi SE 15.0 mph 27.6 mph N/A   Clear
5:55 PM 73.4 °F 48.2 °F 41% 29.79 in 10.0 mi SSE 13.8 mph 24.2 mph N/A   Clear
6:15 PM 73.4 °F 46.4 °F 38% 29.80 in 10.0 mi SSE 11.5 mph 24.2 mph N/A   Clear
6:35 PM 71.6 °F 48.2 °F 43% 29.80 in 10.0 mi SE 12.7 mph 20.7 mph N/A   Clear
6:55 PM 69.8 °F 46.4 °F 43% 29.81 in 10.0 mi SSE 10.4 mph 21.9 mph N/A   Clear
7:15 PM 68.0 °F 48.2 °F 49% 29.81 in 10.0 mi SE 10.4 mph - N/A   Clear
7:35 PM 66.2 °F 48.2 °F 52% 29.81 in 10.0 mi SE 9.2 mph - N/A   Clear
7:55 PM 66.2 °F 48.2 °F 52% 29.81 in 10.0 mi SE 10.4 mph - N/A   Clear
8:15 PM 64.4 °F 48.2 °F 56% 29.81 in 10.0 mi SE 8.1 mph - N/A   Clear
8:35 PM 64.4 °F 48.2 °F 56% 29.82 in 10.0 mi SE 8.1 mph - N/A   Clear
8:55 PM 60.8 °F 48.2 °F 63% 29.83 in 10.0 mi SE 6.9 mph - N/A   Clear
9:15 PM 59.0 °F 48.2 °F 67% 29.83 in 10.0 mi SE 8.1 mph - N/A   Clear
9:35 PM 60.8 °F 50.0 °F 68% 29.83 in 10.0 mi SE 8.1 mph 15.0 mph N/A   Clear
9:55 PM 59.0 °F 48.2 °F 67% 29.84 in 10.0 mi SE 9.2 mph 15.0 mph N/A   Clear
10:15 PM 59.0 °F 48.2 °F 67% 29.84 in 10.0 mi SE 9.2 mph - N/A   Clear
10:35 PM 59.0 °F 48.2 °F 67% 29.84 in 10.0 mi SE 6.9 mph - N/A   Clear
10:55 PM 57.2 °F 48.2 °F 72% 29.85 in 10.0 mi SE 8.1 mph - N/A   Clear
11:15 PM 57.2 °F 48.2 °F 72% 29.84 in 10.0 mi SE 8.1 mph - N/A   Clear
11:35 PM 57.2 °F 50.0 °F 77% 29.84 in 10.0 mi SE 9.2 mph - N/A   Clear
11:55 PM 57.2 °F 50.0 °F 77% 29.84 in 10.0 mi SE 9.2 mph 16.1 mph N/A   Clear